Location: Unspecified
(44.0704°N, 88.6889°W)
Time: 12:22:30
(UTC+02:00)

Transit 2A - Pass Details

Date: 23 June 2019
Orbit: 600 x 959 km, 66.7° (Epoch: 16 October)

Event Time Altitude Azimuth Distance (km) Brightness Sun altitude
Rises 13:51:43 0° 332° (NNW) 3,533 9.3 15.2°
Reaches altitude 10° 13:57:26 10° 14° (NNE) 2,484 9.2 16.1°
Maximum altitude 13:58:03 10° 21° (NNE) 2,459 9.3 16.2°
Drops below altitude 10° 13:58:41 10° 27° (NNE) 2,457 9.4 16.4°
Sets 14:04:00 0° 71° (ENE) 3,262 11.0 17.3°
